Grafton, ND

12:14 AM CDT on June 25, 2017 (GMT -0500)
Grafton Municipal

Weather History for KGAF - January, 2014

Change the Weather History Date:

Friday, January 31, 2014

  Actual Average Record
Temperature  
Mean Temperature -5 °F -  
Max Temperature 6 °F 17 °F 45 °F (1964)
Min Temperature -16 °F -1 °F -29 °F (1959)
Degree Days  
Heating Degree Days 70    
Moisture  
Dew Point -10 °F    
Average Humidity 75    
Maximum Humidity 92    
Minimum Humidity 65    
Precipitation  
Precipitation 0.00 in - - ()
Sea Level Pressure  
Sea Level Pressure 29.88 in    
Wind  
Wind Speed 11 mph (SSW)    
Max Wind Speed 16 mph    
Max Gust Speed 18 mph    
Visibility 10 miles    
Events      
Averages and records for this station are not official NWS values.
T = Trace of Precipitation, MM = Missing Value Source: NWS Daily Summary

Daily Weather History Graph

Daily Weather History Graph

Search for Another Location

Airport or City:

Trip Planner

Search our weather history database for the weather conditions in past years. The results will help you decide how hot, cold, wet, or windy it might be!

Date:

Astronomy

Jan. 31, 2014 Rise Set
Actual Time 7:59 AM CST 5:27 PM CST
Civil Twilight 7:25 AM CST 6:00 PM CST
Nautical Twilight 6:48 AM CST 6:38 PM CST
Astronomical Twilight 6:11 AM CST 7:15 PM CST
Moon 8:01 AM CST (1/31) 7:03 PM CST (1/31)
Length of Visible Light 10h 34m
Length of Day
9h 27m
New Moon, 1% of the Moon is Illuminated
Jan 31
New Moon
Feb 6
First Quarter
Feb 14
Full
Feb 22
Last Quarter
Mar 1
New

Hourly Weather History & Observations

Time (CST) Temp. Windchill Dew Point Humidity Pressure Visibility Wind Dir Wind Speed Gust Speed Precip Events Conditions
12:15 AM -5.8 °F -27.5 °F -13.0 °F 71% 29.96 in 10.0 mi WNW 16.1 mph - N/A   Partly Cloudy
12:35 AM -5.8 °F -26.8 °F -13.0 °F 71% 29.97 in 10.0 mi WNW 15.0 mph - N/A   Clear
12:55 AM -7.6 °F -25.7 °F -14.8 °F 71% 29.97 in 10.0 mi West 10.4 mph - N/A   Clear
1:15 AM -7.6 °F -28.3 °F -14.8 °F 71% 29.96 in 10.0 mi WNW 13.8 mph - N/A   Clear
1:35 AM -7.6 °F -26.6 °F -16.6 °F 65% 29.96 in 10.0 mi West 11.5 mph - N/A   Clear
1:55 AM -9.4 °F -26.8 °F -16.6 °F 71% 29.96 in 10.0 mi West 9.2 mph - N/A   Clear
2:15 AM -11.2 °F -29.0 °F -16.6 °F 77% 29.96 in 10.0 mi West 9.2 mph - N/A   Clear
2:35 AM - - - N/A% 29.95 in 10.0 mi WSW 8.1 mph - N/A   Clear
2:55 AM -13.0 °F -32.4 °F -20.2 °F 70% 29.97 in 10.0 mi WSW 10.4 mph - N/A   Clear
3:15 AM -11.2 °F -29.0 °F -18.4 °F 70% 29.96 in 10.0 mi WSW 9.2 mph - N/A   Clear
3:35 AM - - - N/A% 29.96 in 10.0 mi West 9.2 mph - N/A   Clear
3:55 AM -13.0 °F -31.3 °F -20.2 °F 70% 29.96 in 10.0 mi West 9.2 mph - N/A   Clear
4:15 AM -13.0 °F -31.3 °F -20.2 °F 70% 29.95 in 10.0 mi WSW 9.2 mph - N/A   Clear
4:35 AM -13.0 °F -30.0 °F -20.2 °F 70% 29.95 in 10.0 mi WSW 8.1 mph - N/A   Clear
4:55 AM -13.0 °F -31.3 °F -20.2 °F 70% 29.95 in 10.0 mi WSW 9.2 mph - N/A   Clear
5:15 AM -14.8 °F -32.2 °F -22.0 °F 70% 29.95 in 10.0 mi SW 8.1 mph - N/A   Clear
5:35 AM -14.8 °F -32.2 °F -22.0 °F 70% 29.94 in 10.0 mi SW 8.1 mph - N/A   Scattered Clouds
5:55 AM -16.6 °F -37.9 °F -22.0 °F 76% 29.93 in 10.0 mi SW 11.5 mph - N/A   Clear
6:15 AM -14.8 °F -35.6 °F -22.0 °F 70% 29.93 in 10.0 mi SW 11.5 mph - N/A   Clear
6:35 AM -13.0 °F -32.4 °F -20.2 °F 70% 29.93 in 10.0 mi SW 10.4 mph - N/A   Clear
6:55 AM -13.0 °F -33.4 °F -20.2 °F 70% 29.93 in 10.0 mi SW 11.5 mph - N/A   Clear
7:15 AM -14.8 °F -34.6 °F -20.2 °F 77% 29.93 in 10.0 mi SSW 10.4 mph - N/A   Clear
7:35 AM -14.8 °F -35.6 °F -20.2 °F 77% 29.92 in 10.0 mi South 11.5 mph - N/A   Clear
7:55 AM -13.0 °F -33.4 °F -20.2 °F 70% 29.92 in 10.0 mi South 11.5 mph - N/A   Clear
8:15 AM -14.8 °F -33.5 °F -20.2 °F 77% 29.92 in 10.0 mi South 9.2 mph - N/A   Clear
8:35 AM -13.0 °F -33.4 °F -20.2 °F 70% 29.92 in 10.0 mi SSW 11.5 mph - N/A   Clear
8:55 AM -13.0 °F -32.4 °F -20.2 °F 70% 29.92 in 10.0 mi South 10.4 mph - N/A   Clear
9:15 AM -11.2 °F -30.1 °F -18.4 °F 70% 29.91 in 10.0 mi South 10.4 mph - N/A   Clear
9:35 AM -9.4 °F -29.8 °F -16.6 °F 71% 29.90 in 10.0 mi SSW 12.7 mph - N/A   Clear
9:55 AM -9.4 °F -29.8 °F -16.6 °F 71% 29.90 in 10.0 mi SSW 12.7 mph - N/A   Clear
10:15 AM -5.8 °F -26.0 °F -13.0 °F 71% 29.89 in 10.0 mi SSW 13.8 mph 18.4 mph N/A   Clear
10:35 AM -5.8 °F -26.8 °F -13.0 °F 71% 29.89 in 10.0 mi SSW 15.0 mph - N/A   Clear
10:55 AM -4.0 °F -24.5 °F -11.2 °F 71% 29.88 in 10.0 mi SSW 15.0 mph - N/A   Clear
11:15 AM -2.2 °F -20.7 °F -11.2 °F 66% 29.88 in 10.0 mi SSW 12.7 mph - N/A   Clear
11:35 AM -2.2 °F -18.9 °F -9.4 °F 71% 29.89 in 10.0 mi South 10.4 mph - N/A   Clear
11:55 AM -0.4 °F -17.6 °F -7.6 °F 72% 29.88 in 10.0 mi SSW 11.5 mph - N/A   Clear
12:15 PM -0.4 °F -17.6 °F -5.8 °F 78% 29.87 in 10.0 mi SSW 11.5 mph - N/A   Partly Cloudy
12:35 PM 1.4 °F -16.1 °F -5.8 °F 72% 29.86 in 10.0 mi South 12.7 mph - N/A   Partly Cloudy
12:55 PM 1.4 °F -16.1 °F -4.0 °F 78% 29.86 in 10.0 mi South 12.7 mph - N/A   Partly Cloudy
1:15 PM 5.0 °F -11.6 °F -4.0 °F 66% 29.85 in 10.0 mi South 12.7 mph - N/A   Clear
1:35 PM 5.0 °F -13.0 °F -2.2 °F 72% 29.84 in 10.0 mi SSW 15.0 mph - N/A   Clear
1:55 PM 5.0 °F -12.3 °F -2.2 °F 72% 29.83 in 10.0 mi SSW 13.8 mph - N/A   Clear
2:15 PM 6.8 °F -10.0 °F -0.4 °F 72% 29.83 in 10.0 mi SSW 13.8 mph - N/A   Clear
2:35 PM 6.8 °F -10.7 °F -0.4 °F 72% 29.82 in 10.0 mi SSW 15.0 mph - N/A   Clear
2:55 PM 6.8 °F -10.0 °F -0.4 °F 72% 29.82 in 10.0 mi SSW 13.8 mph - N/A   Clear
3:15 PM 6.8 °F -10.0 °F -0.4 °F 72% 29.81 in 10.0 mi SSW 13.8 mph - N/A   Clear
3:35 PM 6.8 °F -10.0 °F -0.4 °F 72% 29.81 in 10.0 mi SSW 13.8 mph - N/A   Clear
3:55 PM 6.8 °F -8.6 °F -0.4 °F 72% 29.81 in 10.0 mi SSW 11.5 mph - N/A   Clear
4:15 PM 6.8 °F -8.6 °F -0.4 °F 72% 29.81 in 10.0 mi South 11.5 mph - N/A   Clear
4:35 PM 6.8 °F -8.6 °F -0.4 °F 72% 29.80 in 10.0 mi South 11.5 mph - N/A   Clear
4:55 PM 5.0 °F -12.3 °F -0.4 °F 78% 29.79 in 10.0 mi South 13.8 mph - N/A   Clear
5:15 PM 5.0 °F -11.6 °F -2.2 °F 72% 29.80 in 10.0 mi South 12.7 mph - N/A   Clear
5:35 PM 5.0 °F -11.6 °F -2.2 °F 72% 29.80 in 10.0 mi SSW 12.7 mph - N/A   Clear
5:55 PM 5.0 °F -10.8 °F -2.2 °F 72% 29.80 in 10.0 mi SSW 11.5 mph - N/A   Clear
6:15 PM 1.4 °F -13.5 °F -2.2 °F 85% 29.80 in 10.0 mi South 9.2 mph - N/A   Clear
6:35 PM 1.4 °F -11.3 °F -4.0 °F 78% 29.80 in 10.0 mi South 6.9 mph - N/A   Clear
6:55 PM 1.4 °F -9.9 °F -4.0 °F 78% 29.81 in 10.0 mi South 5.8 mph - N/A   Clear
7:15 PM 1.4 °F -13.5 °F -4.0 °F 78% 29.82 in 10.0 mi South 9.2 mph - N/A   Clear
7:35 PM -0.4 °F -15.7 °F -4.0 °F 85% 29.81 in 10.0 mi South 9.2 mph - N/A   Clear
7:55 PM 1.4 °F -15.3 °F -2.2 °F 85% 29.82 in 10.0 mi South 11.5 mph - N/A   Clear
8:15 PM 1.4 °F -16.1 °F -2.2 °F 85% 29.82 in 10.0 mi South 12.7 mph - N/A   Clear
8:35 PM 1.4 °F -14.5 °F -2.2 °F 85% 29.82 in 10.0 mi South 10.4 mph - N/A   Clear
8:55 PM 1.4 °F -15.3 °F -2.2 °F 85% 29.82 in 10.0 mi South 11.5 mph - N/A   Clear
9:15 PM 1.4 °F -14.5 °F -2.2 °F 85% 29.82 in 10.0 mi South 10.4 mph - N/A   Clear
9:35 PM 1.4 °F -12.5 °F -2.2 °F 85% 29.82 in 10.0 mi South 8.1 mph - N/A   Clear
9:55 PM 1.4 °F -9.9 °F -2.2 °F 85% 29.82 in 10.0 mi South 5.8 mph - N/A   Mostly Cloudy
10:15 PM 1.4 °F -9.9 °F -2.2 °F 85% 29.82 in 10.0 mi SSW 5.8 mph - N/A   Scattered Clouds
10:35 PM 1.4 °F -8.3 °F -2.2 °F 85% 29.81 in 10.0 mi South 4.6 mph - N/A   Clear
10:55 PM 1.4 °F -8.3 °F -0.4 °F 92% 29.81 in 10.0 mi South 4.6 mph - N/A   Clear
11:15 PM 1.4 °F -9.9 °F -2.2 °F 85% 29.81 in 10.0 mi SSW 5.8 mph - N/A   Partly Cloudy
11:35 PM 1.4 °F - -2.2 °F 85% 29.81 in 10.0 mi Calm Calm - N/A   Partly Cloudy
11:55 PM -0.4 °F - -2.2 °F 92% 29.82 in 10.0 mi Calm Calm - N/A   Mostly Cloudy